sat.trackr.live / text

‹ back to catalog

ONEWEB-0239

NORAD 48802 · 2021-045AM

PAYLOAD ACTIVE UNKNOWN

§ Identity

Operator
Country
UK
Launch date
2021-05-28
Launch site
VOSTO
Launch vehicle
Mass (kg)
RCS (m²)

Purposes: comms

External: N2YO · Heavens-Above · Gunter

§ Orbital elements

Epoch: 2026-05-24T20:17:09.021120Z

Period
109.46 min
Inclination
87.8987°
Eccentricity
0.0001058
Mean motion
13.15546976 rev/d
Perigee alt
1,201.0 km
Apogee alt
1,202.6 km
Semi-major
7,579.9 km
B*
1.9802e-4
RAAN
263.8536°
Arg perigee
96.0088°
Mean anomaly
264.1163°
Rev number
24,127

§ Raw data

ONEWEB-02391 48802U 21045AM  26144.84524330  .00000087  00000+0  19802-3 0  99972 48802  87.8987 263.8536 0001058  96.0088 264.1163 13.15546976241275

JSON: /api/v1/satellites/48802 · /tle

For live sub-satellite position, see the globe view (requires WebGL).

§ Visibility from observer

Set your observer location to see the next 7 days of passes ≥ 10°. The values pass through the URL so the page stays shareable.

No JS? Fill the form by hand. The geolocation button needs JavaScript.